EHI
0 0 0 0 0 0 1 3 3 2 2 3 3 3 3 2 1 1 0 0 0 0 1 1 1 2 2 2 1 0 0 0 0 1 1 0 0 0 0 0 0 0 0
0 0 0 0 0 1 2 3 3 1 1 2 3 2 2 2 2 2 1 1 0 0 0 0 1 1 1 1 1 1 1 1 1 1 1 0 0 0 0 0 0 0 0
1 1 0 0 0 1 3 3 3 1 1 1 1 1 1 1 1 2 2 2 1 0 0 0 0 1 1 1 2 2 3 2 1 1 1 0 0 0 0 0 0 0 0
2 1 0 0 1 2 3 3 3 2 1 0 0 0 0 0 0 1 2 2 2 1 0 0 0 1 1 1 1 2 4 4 3 2 1 0 0 0 0 0 0 0 0
2 1 0 0 1 3 3 3 2 1 0 0 0 0 0 0 0 0 1 1 2 1 0 0 0 0 0 1 1 2 4 4 5 4 3 2 1 0 0 0 0 0 0
2 2 1 1 2 3 3 1 1 0 0 0 0 0 0 0 0 0 0 0 1 1 0 0 0 0 0 0 1 2 3 3 3 4 5 4 3 1 0 0 0 0 0
3 3 3 3 3 3 3 1 1 0 0 0 0 0 0 0 0 0 0 0 0 0 0 0 0 0 0 0 0 0 1 1 1 2 3 4 4 2 1 0 0 0 0
3 3 3 3 3 3 3 2 1 0 0 0 0 0 0 0 0 0 0 0 0 0 0 0 0 0 0 0 0 0 0 0 0 0 1 2 3 2 1 1 1 1 0
3 3 3 3 3 3 2 1 1 0 0 0 0 0 0 0 0 0 0 0 0 0 0 0 0 0 0 0 0 0 0 0 0 0 0 0 1 1 1 2 2 2 1
1 2 3 3 3 2 1 0 0 0 0 0 0 0 0 0 0 0 0 0 0 0 0 0 0 0 0 0 0 0 0 0 0 0 0 0 0 0 1 2 3 3 3
0 1 3 3 3 2 0 0 0 0 1 0 0 0 0 0 0 0 0 0 0 0 0 0 0 0 0 0 0 0 0 0 0 0 0 0 0 0 0 1 3 3 3
1 1 3 3 3 2 1 0 0 0 0 0 0 0 0 0 0 0 0 0 0 0 0 0 0 0 0 0 0 0 0 0 0 0 0 0 0 0 0 1 2 3 3
3 3 3 3 4 3 2 1 0 0 0 0 0 0 0 0 0 0 0 0 0 0 0 0 0 0 0 0 0 0 0 0 0 0 0 0 0 0 0 0 1 1 2
5 4 3 3 4 4 3 2 1 1 1 0 0 0 0 0 0 0 0 0 0 0 0 0 0 0 0 0 0 0 0 0 0 0 0 0 0 0 0 0 0 0 1
6 5 4 3 3 4 4 3 3 2 2 1 0 0 0 0 0 0 0 0 0 0 0 0 0 0 0 0 0 0 0 0 0 0 0 0 0 0 0 0 0 0 0
7 6 5 3 3 4 4 3 3 3 3 2 1 0 0 0 0 0 0 0 0 0 0 0 0 0 0 0 0 0 0 0 0 0 0 0 0 0 0 0 0 0 0
8 6 4 3 3 4 3 3 3 3 3 3 2 1 0 0 0 0 0 0 0 1 2 1 1 1 1 1 0 0 0 0 0 0 0 0 0 0 0 0 0 0 0
7 6 4 4 4 4 4 4 3 3 3 3 3 2 1 0 0 0 0 0 1 2 3 3 2 2 2 1 0 0 0 0 0 0 0 0 0 0 0 0 0 0 0
6 5 5 5 6 6 6 5 3 3 3 3 3 2 1 0 0 0 0 0 2 3 3 3 3 3 3 1 0 0 0 0 0 0 0 0 0 0 0 0 0 0 0
4 4 5 5 6 6 6 5 3 3 3 3 2 1 0 0 0 0 0 0 1 3 3 3 3 3 2 1 0 0 0 0 0 0 0 0 0 0 0 0 0 0 0
5 5 5 4 5 5 4 4 4 4 3 1 1 0 0 0 0 0 0 0 1 2 3 3 3 1 1 0 0 0 0 0 0 0 0 0 0 0 0 0 0 0 0
8 8 6 5 5 4 3 3 3 4 3 1 0 0 0 0 0 0 0 0 0 1 2 3 2 1 0 0 0 0 0 0 0 0 0 0 0 0 0 0 0 0 0
9 9 8 6 5 4 2 1 1 2 2 1 0 0 0 0 0 1 1 0 0 0 1 1 2 1 0 0 0 0 0 0 0 0 0 0 0 0 0 0 0 0 0
9 9 9 7 4 2 1 0 0 1 1 0 0 0 0 0 0 1 1 0 0 0 0 0 1 1 0 0 0 0 0 0 0 0 0 0 0 0 0 0 0 0 0
10 10 9 7 4 1 0 0 0 0 0 0 0 0 0 0 0 0 0 0 0 0 0 0 0 0 0 0 0 0 0 0 0 0 0 0 1 1 0 0 0 0 0
12 11 9 6 3 1 0 0 0 0 0 0 1 1 1 0 0 0 0 0 0 0 0 0 0 0 0 0 0 0 0 0 0 0 0 1 2 2 1 0 0 0 0
Wind_Speed
0 1 0 1 1 1 1 1 1 1 1 1 1 2 2 2 2 1 1 4 6 6 8 9 9 9 9 9 8 8 8 8 7 7 7 8 8 7 7 7 7 6 6
1 1 0 0 0 0 1 1 1 1 1 1 1 1 1 1 1 2 1 2 4 6 7 8 8 9 9 9 9 8 8 9 8 8 7 7 7 7 7 7 7 6 6
2 1 1 0 1 1 1 1 1 1 1 1 1 1 1 1 1 2 1 1 2 4 6 7 7 8 9 9 9 9 8 8 9 8 8 8 7 7 7 6 6 6 6
2 2 1 1 1 1 1 2 1 1 1 1 1 1 1 1 1 1 1 1 1 2 3 6 7 7 8 9 9 10 9 9 9 9 9 9 9 8 8 7 7 6 6
2 2 1 1 1 1 1 1 1 2 1 1 1 1 1 1 1 1 1 1 2 2 2 3 5 6 6 7 8 8 9 10 9 9 9 9 9 8 8 8 7 7 7
1 1 1 0 1 1 1 1 1 1 1 1 1 1 1 0 1 1 1 1 1 2 2 2 2 3 4 5 5 6 8 8 9 9 9 9 9 8 8 8 7 8 7
1 1 1 1 1 1 1 1 1 1 1 1 2 2 2 1 1 0 1 1 1 1 1 2 1 1 2 4 5 6 7 7 8 8 9 9 9 9 8 8 8 8 8
1 1 1 1 1 1 1 1 2 2 1 1 2 2 1 2 2 1 0 1 1 1 1 2 2 2 2 2 2 5 7 7 7 7 8 9 9 9 9 9 9 8 8
0 1 1 1 1 1 1 2 2 3 2 1 1 2 2 1 1 1 1 0 0 0 1 1 2 2 2 2 2 3 5 5 7 7 8 9 9 9 9 9 9 9 9
1 1 1 1 2 1 2 2 2 2 2 1 1 1 1 2 2 0 1 1 0 0 1 1 1 2 2 2 2 3 4 4 5 6 7 8 9 9 10 10 11 11 10
1 1 1 1 2 1 2 2 2 2 2 2 1 1 1 1 1 2 1 1 1 0 0 1 1 1 1 2 2 2 2 3 3 4 6 7 8 9 10 11 11 11 11
2 2 0 1 1 1 1 2 2 2 2 2 1 1 2 2 2 2 2 1 0 1 1 0 0 0 0 1 1 1 1 1 2 3 5 6 6 8 9 10 11 12 11
1 2 1 0 1 1 2 2 2 2 2 2 2 1 1 1 1 2 2 1 0 1 1 1 0 0 0 0 0 0 0 0 0 1 2 3 4 5 6 7 8 9 9
2 1 0 1 1 1 1 2 1 1 1 1 1 1 1 1 1 2 2 3 1 1 1 1 1 1 1 1 1 1 1 1 1 1 1 1 1 1 1 2 3 5 5
1 0 0 1 1 1 1 2 2 1 1 1 0 1 1 1 1 1 2 3 3 2 0 1 1 1 1 1 2 1 1 2 2 2 2 2 2 2 2 1 1 1 1
1 0 1 1 1 1 2 2 2 1 2 1 1 1 0 1 1 1 1 1 1 2 1 0 1 1 1 2 3 2 2 4 4 3 3 3 4 4 4 3 2 1 1
1 1 1 1 1 1 2 2 2 2 2 2 1 1 1 1 1 1 2 2 1 2 2 0 1 1 1 2 3 2 2 3 3 5 5 5 5 5 5 4 3 3 3
1 1 1 1 1 2 2 2 2 2 3 2 2 2 1 2 2 2 2 2 2 1 2 1 1 1 1 2 2 3 3 3 3 7 7 7 6 6 6 5 5 4 4
1 1 2 2 2 2 2 2 2 3 3 3 3 2 2 2 2 2 2 2 1 2 2 2 1 1 1 2 2 3 4 3 4 5 7 7 8 7 7 7 6 5 4
2 2 2 2 2 2 2 2 3 3 3 3 3 3 2 2 2 2 2 2 2 3 3 2 1 1 1 1 1 2 3 3 3 4 5 6 7 8 9 9 8 7 6
2 2 2 2 2 2 2 3 3 3 4 3 3 3 3 4 4 3 3 2 3 3 2 2 1 1 1 1 1 0 2 2 2 3 3 3 3 4 5 7 8 8 7
3 3 3 2 2 1 3 5 4 3 3 3 2 2 3 4 5 6 6 5 5 3 2 2 1 1 0 0 0 0 1 1 1 2 2 3 3 3 3 3 6 7 7
3 3 3 2 2 2 3 4 5 3 3 2 2 2 2 3 4 4 6 7 6 6 4 2 2 1 1 1 1 1 1 1 0 1 1 2 2 2 3 4 6 6 5
3 2 2 2 2 3 4 4 5 4 3 3 3 2 2 2 3 4 4 5 4 4 3 2 1 0 0 0 1 2 1 1 2 2 1 1 1 1 2 2 5 5 5
2 2 2 2 3 3 4 5 5 4 4 3 3 3 2 3 3 5 5 4 4 3 4 5 4 4 4 4 3 3 2 2 1 1 1 1 0 1 1 2 3 4 4
2 3 3 3 3 3 4 5 5 3 3 3 3 3 4 4 4 4 4 4 3 2 2 4 5 5 5 4 5 2 1 2 1 0 0 0 0 1 0 1 2 2 2
Wind_Direction
95 62 34 56 38 44 80 90 101 113 112 111 136 142 140 146 151 168 189 198 199 196 191 187 184 184 182 182 184 183 182 182 182 177 177 177 175 171 171 172 169 167 167
155 151 110 81 325 192 149 136 138 131 119 110 111 128 139 151 157 174 193 214 211 206 201 197 193 190 190 190 190 190 191 191 188 183 181 182 180 178 178 181 177 172 173
168 172 160 183 230 169 138 121 107 108 121 123 129 138 135 156 160 178 196 212 227 220 210 204 201 197 196 196 196 194 195 193 190 188 186 187 188 187 184 183 183 182 181
165 165 161 214 208 141 134 137 134 128 131 136 138 129 134 140 161 179 207 219 225 232 223 216 211 207 204 202 201 200 199 196 194 195 195 195 195 191 188 188 192 192 190
162 158 162 192 157 128 136 155 132 145 146 141 137 118 135 154 181 191 204 217 215 211 212 229 218 206 206 207 208 208 204 202 200 199 200 201 200 197 197 196 200 201 199
135 136 145 137 124 116 112 119 119 115 137 142 111 76 64 117 122 196 225 225 218 206 199 210 217 211 200 199 203 209 211 209 206 204 204 206 203 198 198 199 205 207 210
87 104 117 107 119 133 159 144 138 117 111 125 105 68 38 48 68 240 215 205 228 213 184 188 200 202 208 210 211 213 217 217 213 208 206 206 205 201 200 202 205 207 213
111 147 141 147 148 140 129 138 148 137 145 134 133 115 38 7 4 17 114 204 234 213 197 204 203 202 213 223 204 211 217 218 217 213 211 209 208 206 206 208 210 212 217
162 180 168 165 170 170 188 197 172 167 169 151 142 149 155 203 314 352 9 17 207 192 228 217 211 211 214 220 225 225 223 222 224 222 220 216 213 212 212 214 217 219 223
261 218 203 183 178 176 190 203 175 175 163 178 170 171 175 162 166 259 348 352 39 179 246 245 232 217 216 219 218 217 223 228 236 237 232 226 220 216 217 221 224 226 227
309 292 227 183 178 181 197 192 168 162 161 175 176 162 152 141 175 177 251 313 1 2 225 242 243 234 220 219 226 223 221 234 243 243 237 233 229 224 223 225 229 231 231
335 330 301 177 180 180 199 196 177 164 171 172 169 162 167 172 181 174 203 237 324 337 352 341 247 239 227 215 212 143 200 239 253 250 244 243 242 238 232 230 233 234 235
316 309 304 213 185 190 186 174 161 162 170 169 177 185 184 188 163 154 152 166 93 357 360 2 351 20 35 360 282 30 61 62 331 275 263 260 254 252 243 237 242 242 240
259 281 244 218 200 176 172 159 142 158 149 162 175 173 161 171 159 162 159 150 130 40 22 333 358 11 359 354 20 13 353 65 67 22 9 7 5 339 297 271 267 257 255
240 280 170 167 165 156 154 140 120 124 111 109 123 157 155 159 153 166 160 159 159 168 253 328 353 353 347 10 27 24 32 52 64 54 49 47 44 42 32 17 338 321 305
187 127 129 138 124 127 132 129 123 125 122 102 98 86 46 40 99 115 137 136 147 164 178 333 320 325 337 28 41 36 38 52 51 57 62 58 55 53 51 56 60 52 40
159 163 146 94 100 107 117 121 129 127 120 95 90 97 57 68 93 93 102 107 108 132 153 47 350 348 15 32 28 32 38 43 43 56 60 62 61 57 59 61 62 56 52
158 155 117 104 104 97 104 122 137 126 119 102 85 84 64 73 80 83 95 102 112 130 141 135 41 16 20 32 35 43 41 45 47 51 54 54 55 53 55 58 61 60 57
133 108 110 112 106 106 108 119 132 120 113 111 102 102 97 92 83 87 96 98 103 104 107 120 83 36 30 45 48 51 50 36 45 52 56 54 51 52 55 55 58 60 59
123 106 100 108 115 118 112 115 118 115 104 91 86 91 95 107 115 113 100 96 102 96 94 100 90 59 43 35 57 54 46 36 32 39 47 50 49 51 50 51 54 59 62
125 113 98 83 82 99 101 107 108 106 104 93 80 76 78 83 86 92 104 111 113 107 104 101 93 74 54 52 29 35 64 53 41 38 39 34 36 43 43 43 51 57 65
104 96 92 90 75 71 91 106 110 103 101 98 86 74 75 68 75 81 89 98 108 119 126 118 112 114 88 210 195 134 113 88 59 16 36 31 37 48 38 41 43 58 67
97 93 86 86 78 65 90 106 107 113 107 99 92 83 79 73 81 86 78 73 68 72 97 138 133 156 214 218 160 132 124 100 103 110 81 50 32 43 31 35 39 55 66
105 104 94 89 82 68 83 98 104 102 94 89 84 84 88 74 79 99 95 78 64 53 58 81 110 108 46 136 163 168 157 104 70 63 60 82 33 28 19 25 36 48 57
99 97 96 89 83 67 77 92 101 98 88 74 62 60 82 83 77 99 100 89 69 47 53 63 65 62 63 69 83 95 95 103 86 64 23 62 99 43 17 22 31 44 49
107 102 84 79 85 76 74 86 97 97 88 72 55 50 57 76 84 93 100 101 90 52 49 51 48 44 47 57 67 87 119 128 111 118 17 84 98 93 43 17 16 22 35